sat.trackr.live / text

‹ back to catalog

STARLINK-36178

NORAD 67025 · 2025-293Y

PAYLOAD ACTIVE UNKNOWN

§ Identity

Operator
Country
US
Launch date
2025-12-10
Launch site
AFWTR
Launch vehicle
Mass (kg)
RCS (m²)

Purposes: comms

External: N2YO · Heavens-Above · Gunter

§ Orbital elements

Epoch: 2026-05-25T00:38:34.803744Z

Period
96.11 min
Inclination
70.0005°
Eccentricity
0.0003339
Mean motion
14.98335870 rev/d
Perigee alt
569.7 km
Apogee alt
574.4 km
Semi-major
6,950.2 km
B*
4.4135e-5
RAAN
261.9274°
Arg perigee
266.6318°
Mean anomaly
93.4459°
Rev number
2,632

§ Raw data

STARLINK-361781 67025U 25293Y   26145.02679171  .00000434  00000+0  44135-4 0  99932 67025  70.0005 261.9274 0003339 266.6318  93.4459 14.98335870 26320

JSON: /api/v1/satellites/67025 · /tle

For live sub-satellite position, see the globe view (requires WebGL).

§ Visibility from observer

Set your observer location to see the next 7 days of passes ≥ 10°. The values pass through the URL so the page stays shareable.

No JS? Fill the form by hand. The geolocation button needs JavaScript.